Aeroporto :
LOGIN :

Iscrizione | Disclaimer

   EN    FR    IT 

 










Sommario :    VFR   VFR Marginale   IFR   IFR Intensivo   IFR Molto Intensivo
Visibilità : 
Base nubi : 
>= 8 km
>= 3000ft
5 / 8 km
1000 / 3000 ft
1500m / 5 km
500 / 1000 ft
800 / 1500m
200 / 500 ft
< 800m
< 200 ft
Simboli :   Temporali  Nebbia  Neve Forte  Precipitazioni Forti  Vento > 20 kt
SIGMETs :   Varie  Temporali  Ghiacco  Turbolenza  Onda orograficha  Ceneri Vulcaniche







- Altitudine del aeroporto : 18 ft


LIPC - Cervia AFB Ravenna

ULTIMO METAR :
  • 250955Z 32004KT CAVOK 23/14 Q1016

METARs OBSOLETI :
  • 250855Z 30002KT CAVOK 23/12 Q1016
  • 250755Z 00000KT CAVOK 20/12 Q1016 RMK SKC VIS MIN 9999 WIND THR11 22002KT WIND THR29 /////KT BLU

TAF TAF LIPC
Valido dal 25 a 09 ore il 25 a 18 ore UTC


250800Z 2509/2518 VRB03KT CAVOK
BECMG 2511/2513 10010KT
Nessun NOTAM noto per questo aeroporto.



MetMap, La meteo Aeronautica in un colpo d'occhio ! - Copyright ORBIFLY Dicembre 2007 - Disclaimer

ORBIFLY MET'MAP TEAM :

Programmazione e sviluppo : Alexandra Zaïnal
Concezione e sviluppo : Baudouin d'Aumeries
Co-Programmazione e sviluppo : Marc-Olivier Méhu
Supporto tecnico e logistico : Manuel Goepfert
Aiuto per la traduzione : Arnaldo La Scala

Contatto : metmap@orbifly.com




FONTI E CREDITI :

   NOAA